Santa Monica, CA

11:20 AM PST on December 13, 2017 (GMT -0800)
Santa Monica Municipal

Weather History for KSMO - February, 2013

Change the Weather History Date:

Thursday, February 21, 2013

  Actual Average Record
Temperature  
Mean Temperature 54 °F -  
Max Temperature 62 °F 70 °F 87 °F (2002)
Min Temperature 45 °F 48 °F 37 °F (1953)
Degree Days  
Heating Degree Days 12    
Growing Degree Days 4 (Base 50)    
Moisture  
Dew Point 36 °F    
Average Humidity 55    
Maximum Humidity 71    
Minimum Humidity 34    
Precipitation  
Precipitation 0.00 in - - ()
Sea Level Pressure  
Sea Level Pressure 30.03 in    
Wind  
Wind Speed 3 mph (NNW)    
Max Wind Speed 10 mph    
Max Gust Speed 18 mph    
Visibility 10 miles    
Events      
Averages and records for this station are not official NWS values.
T = Trace of Precipitation, MM = Missing Value Source: NWS Daily Summary

Daily Weather History Graph

Daily Weather History Graph

Search for Another Location

Airport or City:

Trip Planner

Search our weather history database for the weather conditions in past years. The results will help you decide how hot, cold, wet, or windy it might be!

Date:

Astronomy

Feb. 21, 2013 Rise Set
Actual Time 6:31 AM PST 5:43 PM PST
Civil Twilight 6:06 AM PST 6:08 PM PST
Nautical Twilight 5:37 AM PST 6:38 PM PST
Astronomical Twilight 5:08 AM PST 7:07 PM PST
Moon 2:09 PM PST (2/21) 3:32 AM PST (2/21)
Length of Visible Light 12h 02m
Length of Day
11h 11m
Waxing Gibbous, 84% of the Moon is Illuminated
Feb 21
Waxing Gibbous
Feb 25
Full
Mar 4
Last Quarter
Mar 11
New
Mar 19
First Quarter

Hourly Weather History & Observations

Time (PST) Temp. Windchill Dew Point Humidity Pressure Visibility Wind Dir Wind Speed Gust Speed Precip Events Conditions
12:51 AM 48.0 °F - 30.0 °F 50% 30.01 in 10.0 mi Calm Calm - N/A   Clear
1:51 AM 45.0 °F - 33.1 °F 63% 30.02 in 10.0 mi Calm Calm - N/A   Clear
2:51 AM 46.0 °F - 32.0 °F 58% 30.00 in 10.0 mi Calm Calm - N/A   Clear
3:51 AM 46.0 °F 44.8 °F 37.0 °F 71% 30.01 in 10.0 mi NE 3.5 mph - N/A   Clear
4:51 AM 45.0 °F - 36.0 °F 71% 30.01 in 10.0 mi Calm Calm - N/A   Clear
5:51 AM 45.0 °F 43.5 °F 36.0 °F 71% 30.01 in 10.0 mi NE 3.5 mph - N/A   Clear
6:27 AM 46.4 °F 44.3 °F 35.6 °F 66% 30.03 in 10.0 mi NNE 4.6 mph - N/A   Mostly Cloudy
6:51 AM 46.0 °F 44.8 °F 36.0 °F 68% 30.02 in 10.0 mi ENE 3.5 mph - N/A   Scattered Clouds
7:40 AM 50.0 °F - 37.4 °F 62% 30.04 in 10.0 mi NE 5.8 mph - N/A   Mostly Cloudy
7:51 AM 50.0 °F - 37.9 °F 63% 30.04 in 10.0 mi ENE 4.6 mph - N/A   Mostly Cloudy
8:51 AM 54.0 °F - 39.9 °F 59% 30.05 in 10.0 mi ENE 4.6 mph - N/A   Mostly Cloudy
9:51 AM 55.9 °F - 39.9 °F 55% 30.06 in 10.0 mi Variable 4.6 mph - N/A   Scattered Clouds
11:08 AM 57.2 °F - 35.6 °F 44% 30.03 in 10.0 mi East 4.6 mph - N/A   Scattered Clouds
11:51 AM 59.0 °F - 35.1 °F 41% 30.01 in 10.0 mi Calm Calm - N/A   Scattered Clouds
12:51 PM 62.1 °F - 33.1 °F 34% 29.99 in 10.0 mi Calm Calm - N/A   Scattered Clouds
1:51 PM 57.0 °F - 41.0 °F 55% 29.99 in 10.0 mi SW 5.8 mph - N/A   Mostly Cloudy
2:51 PM 57.0 °F - 44.1 °F 62% 30.00 in 10.0 mi WSW 10.4 mph 18.4 mph N/A   Clear
3:51 PM 57.9 °F - 36.0 °F 44% 29.99 in 10.0 mi West 8.1 mph - N/A   Clear
4:51 PM 55.9 °F - 42.1 °F 60% 29.99 in 10.0 mi WSW 9.2 mph - N/A   Clear
5:51 PM 55.0 °F - 39.9 °F 57% 30.02 in 10.0 mi West 6.9 mph - N/A   Clear
6:51 PM 55.0 °F - 39.9 °F 57% 30.04 in 10.0 mi NW 3.5 mph - N/A   Clear
7:51 PM 55.0 °F - 35.1 °F 47% 30.06 in 10.0 mi West 4.6 mph - N/A   Clear
8:51 PM 55.0 °F - 32.0 °F 42% 30.07 in 10.0 mi Variable 5.8 mph - N/A   Clear
9:51 PM 54.0 °F - 30.9 °F 41% 30.07 in 10.0 mi Variable 5.8 mph - N/A   Clear
10:51 PM 54.0 °F - 30.9 °F 41% 30.09 in 10.0 mi SW 3.5 mph - N/A   Clear
11:51 PM 53.1 °F - 30.0 °F 41% 30.09 in 10.0 mi Calm Calm - N/A   Clear